TimeEST,TemperatureF,Dew PointF,Humidity,Sea Level PressureIn,VisibilityMPH,Wind Direction,Wind SpeedMPH,Gust SpeedMPH,PrecipitationIn,Events,Conditions,WindDirDegrees,DateUTC
12:02 AM,53.6,53.6,100,29.25,2.5,West,3.5,-,0.04,Rain,Rain,260,2013-01-31 05:02:00
12:11 AM,55.4,53.6,94,29.25,1.2,WSW,4.6,-,0.13,Rain,Heavy Rain,240,2013-01-31 05:11:00
12:18 AM,53.6,53.6,100,29.23,2.0,WNW,5.8,-,0.14,Rain,Rain,290,2013-01-31 05:18:00
12:29 AM,55.4,53.6,94,29.25,5.0,WNW,8.1,-,0.16,Rain,Light Rain,290,2013-01-31 05:29:00
12:37 AM,55.4,53.6,94,29.27,7.0,WNW,11.5,-,0.16,Rain,Light Rain,290,2013-01-31 05:37:00
12:53 AM,55.0,52.0,89,29.22,6.0,West,8.1,-,0.20,Rain,Light Rain,270,2013-01-31 05:53:00
1:53 AM,54.0,51.1,90,29.21,9.0,WSW,5.8,-,0.04,Rain,Light Rain,240,2013-01-31 06:53:00
2:53 AM,52.0,44.1,74,29.21,10.0,West,17.3,29.9,0.03,Rain,Light Rain,280,2013-01-31 07:53:00
3:53 AM,46.9,33.1,59,29.27,10.0,West,27.6,42.6,0.01,,Overcast,280,2013-01-31 08:53:00
4:53 AM,44.1,28.9,55,29.31,10.0,West,26.5,43.7,N/A,,Partly Cloudy,280,2013-01-31 09:53:00
5:53 AM,41.0,26.1,55,29.43,10.0,West,26.5,38.0,N/A,,Mostly Cloudy,280,2013-01-31 10:53:00
6:53 AM,39.0,21.9,50,29.49,10.0,West,23.0,44.9,N/A,,Mostly Cloudy,270,2013-01-31 11:53:00
7:53 AM,37.9,19.0,47,29.54,10.0,WNW,31.1,48.3,N/A,,Clear,290,2013-01-31 12:53:00
8:53 AM,37.9,21.0,51,29.57,10.0,West,25.3,41.4,N/A,,Clear,270,2013-01-31 13:53:00
9:53 AM,37.9,19.9,48,29.63,10.0,WNW,21.9,40.3,0.00,,Mostly Cloudy,290,2013-01-31 14:53:00
10:53 AM,39.9,19.0,43,29.65,10.0,West,26.5,35.7,N/A,,Scattered Clouds,270,2013-01-31 15:53:00
11:53 AM,37.0,21.9,54,29.69,8.0,West,27.6,41.4,N/A,,Overcast,270,2013-01-31 16:53:00
12:53 PM,36.0,21.9,57,29.71,10.0,West,23.0,32.2,0.00,,Mostly Cloudy,270,2013-01-31 17:53:00
1:53 PM,35.1,19.0,52,29.72,10.0,West,12.7,32.2,0.00,,Overcast,260,2013-01-31 18:53:00
2:53 PM,37.0,15.1,41,29.74,10.0,West,28.8,41.4,N/A,,Mostly Cloudy,260,2013-01-31 19:53:00
3:53 PM,33.1,18.0,54,29.77,10.0,West,15.0,25.3,0.00,,Mostly Cloudy,260,2013-01-31 20:53:00
4:53 PM,33.1,14.0,46,29.81,10.0,West,20.7,40.3,N/A,,Partly Cloudy,270,2013-01-31 21:53:00
5:53 PM,30.9,10.9,43,29.86,10.0,West,27.6,39.1,N/A,,Mostly Cloudy,260,2013-01-31 22:53:00
6:53 PM,30.0,10.0,43,29.90,10.0,West,11.5,19.6,N/A,,Mostly Cloudy,260,2013-01-31 23:53:00
7:53 PM,28.0,9.0,45,29.90,10.0,WSW,8.1,-,N/A,,Clear,250,2013-02-01 00:53:00
9:53 PM,28.9,10.9,47,29.90,10.0,WSW,10.4,-,N/A,,Mostly Cloudy,240,2013-02-01 02:53:00
10:53 PM,28.9,12.0,49,29.89,10.0,WSW,9.2,-,N/A,,Clear,250,2013-02-01 03:53:00
11:53 PM,28.9,12.0,49,29.88,10.0,SW,5.8,-,N/A,,Mostly Cloudy,230,2013-02-01 04:53:00